Weather in Kart-Dzhurt

Russia / Karachay-Cherkess Republic     43°30′14″N   42°06′47″E
temp.,
°C
wind,
m/s
gust,
m/s
humid.,
%
clouds,
%
prec.,
mm/h
press.,
hPa
HPBL,
m
24 may, tue
tue2400:00+2w0298100 1.8 1008193
03:00+1ssw1297100 2.3 1008130
06:00+1sw118987 0.1 1009154
09:00+4n1278100 0.3 1007725
12:00+5wnw028596 1.1 1008829
15:00+4wsw028993 3.6 1010667
18:00+2e0293100 2.0 1012454
21:00+1sw1292100 2.4 1015131
25 may, wed
wed2500:00−1sw129535 0.3 101735
03:00−3ssw339114 0.3 101975
06:000ssw23849 0.0 1018143
09:00+4n327191 0.1 1017974
12:00+5n2276100 1.8 10171045
15:00+3n1294100 7.1 1020339
18:00+2n119584 3.9 1021286
21:000s229368 4.1 102453
26 may, thu
thu2600:00−3ssw34936 0.0 102662
03:00−3ssw34928 0.0 102567
06:00−1ssw338631 0.0 102570
09:00+6n1261100 0.0 1020816
12:00+10wsw12487 0.0 10191471
15:00+11sw23488 0.0 10181567
18:00+9sw136325 0.0 1018560
21:00+2ssw45885 0.0 102382
27 may, fri
fri2700:00+1ssw56785 0.0 102396
03:000ssw566135 0.0 102374
06:00+3ssw455034 0.0 102190
09:00+11nnw12280 0.0 1018972
12:00+14n33334 0.0 10171529
15:00+14nnw334312 0.0 10171356
18:00+10n227553 0.0 1019519
21:00+5s228919 0.0 102135
28 may, sat
sat2800:00+3s45834 0.0 102069
03:00+3ssw45735 0.0 102071
06:00+6ssw35584 0.0 101889
09:00+15nnw13280 0.0 10141043
12:00+18nnw24290 0.0 10121508
15:00+17nnw24380 0.0 10131624
18:00+14n12622 0.0 1014510
21:00+7ssw33800 0.1 101845